Tracking 19149 objects as of 22-Apr-2018
HD Live streaming from Space Station
objects crossing your sky now

FENGYUN 1C DEB

Track FENGYUN 1C DEB now!
10-day predictions


NORAD ID: 36230
Int'l Code: 1999-025DVF
Perigee: 845.3 km
Apogee: 1,191.5 km
Inclination: 99.6 °
Period: 105.4 minutes
Semi major axis: 7389 km
RCS: 0.0137 m2 (small)
Launch date: May 10, 1999
Source: People's Republic of China (PRC)
Launch site: Taiyaun Space Center, China (TSC)

Note: This is SATELLITE DEBRIS
aabbcc
Your satellite tracking list
Your tracking list is empty




NASA's NSSDC Master Catalog

Two Line Element Set (TLE):
1 36230U 99025DVF 18105.95595093  .00000484  00000-0  52507-3 0  9997
2 36230  99.6480 156.5249 0234214 152.7071 208.6608 13.66749883522276
Source of the keplerian elements: AFSPC